This is the latest recevied weather packets stored in our database for station/object KC1OEK-13. If no packets are shown the sender has not sent any weather packets the latest 10 day(s).
| Time | Temp. | Humidity | Pressure | Rain* | Wind** | Luminosity | Snow |
|---|---|---|---|---|---|---|---|
| 1778150980 | 7.22° C | 95% | 1011.3 hPa | 0 mm | - | 33 W/m² | - |
| 1778150678 | 7.22° C | 96% | 1011.4 hPa | 0 mm | - | 29 W/m² | - |
| 1778150373 | 7.78° C | 96% | 1011.4 hPa | 0 mm | - | 27 W/m² | - |
| 1778150070 | 7.78° C | 96% | 1011.2 hPa | 0 mm | - | 27 W/m² | - |
| 1778149766 | 7.78° C | 96% | 1011.1 hPa | 0 mm | - | 30 W/m² | - |
| 1778149463 | 7.78° C | 96% | 1011 hPa | 0 mm | - | 17 W/m² | - |
| 1778149159 | 7.78° C | 96% | 1010.7 hPa | 0 mm | - | 18 W/m² | - |
| 1778148854 | 7.78° C | 97% | 1011 hPa | 0 mm | - | 11 W/m² | - |
| 1778148551 | 7.22° C | 98% | 1010.7 hPa | 0 mm | - | 8 W/m² | - |
| 1778148249 | 7.78° C | 99% | 1010.6 hPa | 0 mm | - | 7 W/m² | - |
| 1778147947 | 7.78° C | 99% | 1010.6 hPa | 0 mm | - | 5 W/m² | - |
| 1778147644 | 7.78° C | 99% | 1010.6 hPa | 0 mm | - | 4 W/m² | - |
| 1778147341 | 7.78° C | 99% | 1010.7 hPa | 0 mm | - | 3 W/m² | - |
| 1778147037 | 7.78° C | 99% | 1010.9 hPa | 0 mm | - | 2 W/m² | - |
| 1778146734 | 7.78° C | 99% | 1010.6 hPa | 0 mm | - | 1 W/m² | - |
| 1778146433 | 7.78° C | 99% | 1010.5 hPa | 0 mm | - | 0 W/m² | - |
| 1778146130 | 8.33° C | 99% | 1010.7 hPa | 0 mm | - | 0 W/m² | - |
| 1778145826 | 8.33° C | 99% | 1010.8 hPa | 0 mm | - | 0 W/m² | - |
| 1778145523 | 8.33° C | 99% | 1010.5 hPa | 0 mm | - | 0 W/m² | - |
| 1778145219 | 8.33° C | 99% | 1010.2 hPa | 0 mm | - | 0 W/m² | - |
| 1778144915 | 8.33° C | 99% | 1010.3 hPa | 0 mm | - | 0 W/m² | - |
| 1778144612 | 8.33° C | 99% | 1010.2 hPa | 0 mm | - | 0 W/m² | - |
| 1778144309 | 8.33° C | 99% | 1010.3 hPa | 1.78 mm | - | 0 W/m² | - |
| 1778144005 | 8.33° C | 99% | 1010.5 hPa | 1.78 mm | - | 0 W/m² | - |
| 1778143703 | 8.33° C | 99% | 1010.3 hPa | 0 mm | - | 0 W/m² | - |
* Rain latest hour (hover to see other rain measurements)
** Current wind speed in m/s (hover to see current wind gust speed)